Regional Weather Roundup
Issued by NWS

Home | Current Version | Previous Version | Graphics & Text | Print | Product List | Glossary On
Versions: 1 2 3 4 5 6 7 8 9 10 11 12 13 14 15 16 17 18 19 20 21 22 23 24 25 26 27 28 29 30 31 32 33 34 35 36 37 38 39 40 41 42 43 44 45 46 47 48 49 50
000
ASUS43 KIND 231659
RWRIN

WEATHER ROUNDUP FOR INDIANA
NATIONAL WEATHER SERVICE INDIANAPOLIS IN
100 PM EDT SAT MAY 23 2015

NOTE: "FAIR" INDICATES FEW OR NO CLOUDS BELOW 12,000 FEET WITH NO
SIGNIFICANT WEATHER AND/OR OBSTRUCTIONS TO VISIBILITY.

* - STATION DOES NOT REPORT WEATHER SUCH AS PRECIPITATION OR FOG.

+ - STATION NOT QUALITY CONTROLLED BY THE NATIONAL WEATHER SERVICE.
    USE DATA WITH CAUTION...ESPECIALLY DEWPOINT AND RELATIVE
    HUMIDITY OBSERVATIONS.

INZ001>003-010>013-019-020-231800-
NORTHWEST INDIANA

CITY           SKY/WX    TMP DP  RH WIND       PRES   REMARKS
GARY /AIRPORT/ MOSUNNY   75  43  31 S14       30.32F
MONTICELLO +   SUNNY     76  49  39 SW7G18    30.32F
RENSSELAER +   SUNNY     77  43  29 SW9       30.32F

$$

LMZ046-743>745-231800-
SOUTHERN LAKE MICHIGAN

STATION/POSITION TIME  TEMP    WIND        PRES    WAVE
                       AIR SEA DIR/SP/G            HT
                 (UTC) (F)     (DEG/KT/KT) (MB)    (FT)
BURNS HARBOR     1600   73     140/  7/ 12 1027.1F
MICHIGAN CITY    1600   70     140/  9/ 15   N/A
5NW MICH CITY    1600   64 53  160/  6/  8   N/A     1

$$

INZ004-005-014>016-021>024-231800-
NORTH CENTRAL INDIANA

CITY           SKY/WX    TMP DP  RH WIND       PRES   REMARKS
ELKHART        SUNNY     73  36  25 SW6       30.35F
GOSHEN         SUNNY     74  43  32 MISG      30.35F
SOUTH BEND     SUNNY     74  36  25 S6        30.34F
WARSAW +       SUNNY     73  41  31 S6        30.35F

$$

INZ006>009-017-018-025>027-231800-
NORTHEAST INDIANA

CITY           SKY/WX    TMP DP  RH WIND       PRES   REMARKS
ANGOLA *+      SUNNY     72  63  73 S6        30.36F
FORT WAYNE     MOSUNNY   75  42  30 S6        30.37F

$$

INZ028-029-035-036-043>045-051>053-231800-
WEST CENTRAL INDIANA

CITY           SKY/WX    TMP DP  RH WIND       PRES   REMARKS
CRAWFORDSVL +  SUNNY     74  37  25 S7        30.34F
GREENCASTLE +  SUNNY     73  43  33 S12       30.35F
LAFAYETTE      SUNNY     76  45  33 VRB3      30.32F
TERRE HAUTE    MOSUNNY   75  50  41 VRB7      30.34F

$$

INZ030>032-037>040-046>048-054>057-064-065-231800-
CENTRAL INDIANA

CITY           SKY/WX    TMP DP  RH WIND       PRES   REMARKS
ANDERSON       MOSUNNY   75  39  27 S8        30.38F
COLUMBUS       MOSUNNY   73  43  33 S9        30.38S
GREENWOOD *+   SUNNY     75  41  29 S6        30.37F
INDIANAPOLIS   MOSUNNY   76  47  35 S12       30.35S
-EAGLE CREEK   SUNNY     75  46  35 S9        30.35F
KOKOMO *+      SUNNY     77  48  36 W9G18     30.34F
MT COMFORT *+  SUNNY     77  23  13 S9        30.37S
SHELBYVILLE    SUNNY     78  47  33 S8G21     30.36F

$$

INZ033-034-041-042-049-050-058-059-231800-
EAST CENTRAL INDIANA

CITY           SKY/WX    TMP DP  RH WIND       PRES   REMARKS
MUNCIE         SUNNY     76  46  34 SW6       30.36F

$$

INZ060-061-067>069-081>083-085>088-231800-
SOUTHWEST INDIANA

CITY           SKY/WX    TMP DP  RH WIND       PRES   REMARKS
EVANSVILLE     SUNNY     75  50  41 S12       30.35F
HUNTINGBURG *+ MOSUNNY   75  52  43 S13       30.36F

$$

INZ062-063-066-070>080-084-089>092-231800-
SOUTH CENTRAL AND SOUTHEAST INDIANA

CITY           SKY/WX    TMP DP  RH WIND       PRES   REMARKS
BLOOMINGTON    MOSUNNY   75  53  46 SE9       30.36F
MADISON *+     MOSUNNY   75  43  31 S7        30.40F
SEYMOUR +      MOSUNNY   79  50  36 SE9       30.37F

$$



USA.gov is the U.S. government's official web portal to all federal, state and local government web resources and services.